FLOCK 4S-48 (47617 NORAD) Tracking and Keplerian Element Data

This shows tracking and keplerian element data for the satellite.

Feedback or suggestion? Click here.




ElementValue
Catalog47617
NameFLOCK 4S-48
Epoch Orbit1353
Epoch Day105.69418088
Epoch Year2021
RAAN168.0636
Inclination97.4976
Eccentricity0.0010667
Argument of Perigee312.8037
Mean Anonmoly47.2296
Mean Motion15.12996024
Decay Rate7.31E-06
L11 47617U 21006EJ 21105.69418088 .00000731 00000-0 45054-4 0 9990
L22 47617 97.4976 168.0636 0010667 312.8037 47.2296 15.12996024 13534

Live tracking and technical data element details for FLOCK 4S-48 (NORAD 47617). FLOCK 4S-48 can be tracked NOW for your location showing map with azimuth and elevation plus other details from your city location.

Track the satellite on the map from your city or location and see movement details for azimuth, elevation, latitude, longitude, range, height, and movement on the map or in text.







IsCatalogInMostPopularTable: catalog: 47617, numindb: 17
Update: records affected: 1



GetName: 47617 FLOCK 4S-48

Hit Count: updated at: Fri, 16 Apr 2021 11:54:02 GMT